HOP7369 LFLL-LFPG

Flight info

Callsign HOP7369
Flight time 1h 8m
Altitude 20000
Route BUSI8S BUSIL PIBAT PIBA9P
Aircraft AT76/M-SDE2E3FGHIRWXY/LB1

Departure

Time 2026-05-05 20:47
Airport Lyon Saint-Exupéry Airport (LFLL)

Arrival

Time 2026-05-05 21:56
Airport Charles de Gaulle International Airport (LFPG)
Time Latitude Longitude Altitude Speed Heading
2026-05-05 20:13 45.72427 5.08201 827 ft 0 kts 180°
2026-05-05 20:35 45.72434 5.08201 827 ft 2 kts 180°
2026-05-05 20:36 45.72451 5.08201 827 ft 3 kts 180°
2026-05-05 20:36 45.72471 5.08202 827 ft 3 kts 180°
2026-05-05 20:36 45.72476 5.08202 827 ft 0 kts 180°
2026-05-05 20:36 45.72467 5.08216 827 ft 1 kts 90°
2026-05-05 20:37 45.72467 5.08217 827 ft 0 kts 86°
2026-05-05 20:38 45.72467 5.08220 827 ft 1 kts 82°
2026-05-05 20:38 45.72469 5.08228 827 ft 0 kts 79°
2026-05-05 20:39 45.72478 5.08277 827 ft 11 kts 73°
2026-05-05 20:39 45.72494 5.08346 827 ft 6 kts 61°
2026-05-05 20:39 45.72533 5.08375 827 ft 9 kts
2026-05-05 20:40 45.72625 5.08374 827 ft 18 kts 356°
2026-05-05 20:40 45.72771 5.08354 827 ft 24 kts 354°
2026-05-05 20:40 45.72955 5.08335 827 ft 28 kts 355°
2026-05-05 20:40 45.73160 5.08312 827 ft 31 kts 356°
2026-05-05 20:41 45.73381 5.08286 827 ft 33 kts 356°
2026-05-05 20:41 45.73601 5.08249 827 ft 28 kts 359°
2026-05-05 20:41 45.73690 5.08252 827 ft 3 kts 23°
2026-05-05 20:41 45.73693 5.08254 827 ft 0 kts 27°
2026-05-05 20:42 45.73705 5.08268 827 ft 6 kts 51°
2026-05-05 20:42 45.73727 5.08390 827 ft 14 kts 96°
2026-05-05 20:42 45.73709 5.08487 827 ft 6 kts 107°
2026-05-05 20:43 45.73706 5.08504 827 ft 0 kts 104°
2026-05-05 20:45 45.73706 5.08505 827 ft 1 kts 104°
2026-05-05 20:46 45.73698 5.08542 827 ft 7 kts 106°
2026-05-05 20:46 45.73682 5.08627 827 ft 11 kts 105°
2026-05-05 20:46 45.73642 5.08719 827 ft 12 kts 161°
2026-05-05 20:46 45.73538 5.08735 827 ft 19 kts 173°
2026-05-05 20:47 45.73256 5.08766 828 ft 77 kts 174°
2026-05-05 20:47 45.72526 5.08860 938 ft 119 kts 174°
2026-05-05 20:47 45.71654 5.08971 1340 ft 140 kts 174°
2026-05-05 20:47 45.70590 5.09101 1707 ft 163 kts 175°
2026-05-05 20:48 45.69417 5.09230 2261 ft 168 kts 175°
2026-05-05 20:48 45.68251 5.09356 2800 ft 170 kts 175°
2026-05-05 20:48 45.67067 5.09484 3321 ft 173 kts 175°
2026-05-05 20:48 45.65858 5.09615 3846 ft 174 kts 175°
2026-05-05 20:49 45.64645 5.09746 4372 ft 175 kts 175°
2026-05-05 20:49 45.63423 5.09878 4882 ft 177 kts 175°
2026-05-05 20:49 45.62191 5.10013 5397 ft 178 kts 175°
2026-05-05 20:49 45.61070 5.10708 5900 ft 179 kts 142°
2026-05-05 20:50 45.60499 5.12306 6343 ft 190 kts 106°
2026-05-05 20:50 45.60730 5.14205 6705 ft 204 kts 68°
2026-05-05 20:50 45.61694 5.15700 7158 ft 208 kts 39°
2026-05-05 20:50 45.63023 5.16514 7616 ft 208 kts 16°
2026-05-05 20:51 45.64436 5.16998 8056 ft 210 kts 11°
2026-05-05 20:51 45.65863 5.17399 8509 ft 210 kts
2026-05-05 20:51 45.67308 5.17779 8902 ft 211 kts
2026-05-05 20:51 45.68760 5.18159 9239 ft 213 kts
2026-05-05 20:52 45.70203 5.18617 9633 ft 214 kts 11°
2026-05-05 20:52 45.71670 5.19070 10005 ft 214 kts
2026-05-05 20:52 45.73129 5.19450 10358 ft 215 kts
2026-05-05 20:52 45.74606 5.19791 10688 ft 216 kts
2026-05-05 20:53 45.76070 5.19477 11045 ft 207 kts 336°
2026-05-05 20:53 45.77354 5.18557 11363 ft 207 kts 326°
2026-05-05 20:53 45.78571 5.17492 11701 ft 207 kts 323°
2026-05-05 20:53 45.79791 5.16385 12053 ft 208 kts 322°
2026-05-05 20:54 45.81031 5.15294 12406 ft 209 kts 324°
2026-05-05 20:54 45.82280 5.14231 12756 ft 209 kts 324°
2026-05-05 20:54 45.83531 5.13174 13096 ft 210 kts 324°
2026-05-05 20:54 45.84795 5.12110 13423 ft 211 kts 324°
2026-05-05 20:55 45.86027 5.11072 13744 ft 211 kts 324°
2026-05-05 20:55 45.87334 5.09953 13891 ft 221 kts 324°
2026-05-05 20:55 45.88698 5.08788 13961 ft 232 kts 324°
2026-05-05 20:55 45.90120 5.07569 13974 ft 243 kts 324°
2026-05-05 20:56 45.91582 5.06339 14231 ft 240 kts 325°
2026-05-05 20:56 45.92956 5.05165 14768 ft 225 kts 323°
2026-05-05 20:56 45.93763 5.04447 15114 ft 217 kts 323°
2026-05-05 20:57 45.94018 5.04218 15212 ft 215 kts 323°
2026-05-05 20:57 45.95253 5.03096 15752 ft 205 kts 322°
2026-05-05 20:58 45.96463 5.01985 15998 ft 211 kts 322°
2026-05-05 20:58 45.97733 5.00809 16115 ft 222 kts 322°
2026-05-05 20:58 45.99045 4.99615 16338 ft 225 kts 323°
2026-05-05 20:58 46.00370 4.98424 16657 ft 223 kts 323°
2026-05-05 20:59 46.01693 4.97238 16958 ft 223 kts 323°
2026-05-05 20:59 46.02093 4.96880 17043 ft 223 kts 323°
2026-05-05 20:59 46.02800 4.96242 17147 ft 226 kts 323°
2026-05-05 21:00 46.04154 4.95017 17379 ft 229 kts 323°
2026-05-05 21:00 46.05505 4.93799 17720 ft 226 kts 323°
2026-05-05 21:00 46.06811 4.92601 18049 ft 224 kts 322°
2026-05-05 21:00 46.08122 4.91390 18308 ft 225 kts 322°
2026-05-05 21:01 46.08917 4.90654 18446 ft 226 kts 322°
2026-05-05 21:01 46.09817 4.89824 18565 ft 227 kts 322°
2026-05-05 21:02 46.11164 4.88613 18771 ft 227 kts 323°
2026-05-05 21:02 46.12495 4.87432 19042 ft 225 kts 323°
2026-05-05 21:02 46.13815 4.86249 19274 ft 224 kts 323°
2026-05-05 21:02 46.15136 4.85041 19460 ft 225 kts 322°
2026-05-05 21:03 46.16459 4.83823 19656 ft 226 kts 322°
2026-05-05 21:03 46.17780 4.82615 19834 ft 228 kts 323°
2026-05-05 21:03 46.19140 4.81394 19936 ft 232 kts 323°
2026-05-05 21:03 46.20529 4.80149 19969 ft 239 kts 323°
2026-05-05 21:04 46.21970 4.78852 19975 ft 245 kts 323°
2026-05-05 21:04 46.23421 4.77541 19976 ft 250 kts 323°
2026-05-05 21:04 46.24917 4.76184 19975 ft 255 kts 323°
2026-05-05 21:04 46.26422 4.74815 19975 ft 258 kts 323°
2026-05-05 21:05 46.27969 4.73414 19974 ft 261 kts 324°
2026-05-05 21:05 46.29533 4.72020 19974 ft 264 kts 324°
2026-05-05 21:05 46.29716 4.71855 19974 ft 264 kts 324°
2026-05-05 21:06 46.30429 4.71210 19974 ft 265 kts 323°
2026-05-05 21:06 46.32008 4.69772 19973 ft 266 kts 323°
2026-05-05 21:06 46.33557 4.68354 19973 ft 267 kts 323°
2026-05-05 21:06 46.35127 4.66914 19973 ft 268 kts 323°
2026-05-05 21:07 46.36702 4.65466 19973 ft 269 kts 323°
2026-05-05 21:07 46.38282 4.64013 19973 ft 270 kts 323°
2026-05-05 21:07 46.39887 4.62556 19973 ft 271 kts 324°
2026-05-05 21:07 46.41489 4.61125 19973 ft 272 kts 324°
2026-05-05 21:08 46.43093 4.59681 19973 ft 273 kts 324°
2026-05-05 21:08 46.44716 4.58193 19973 ft 273 kts 323°
2026-05-05 21:08 46.46306 4.56728 19972 ft 274 kts 323°
2026-05-05 21:08 46.47925 4.55245 19972 ft 274 kts 324°
2026-05-05 21:09 46.49551 4.53784 19972 ft 275 kts 324°
2026-05-05 21:09 46.51184 4.52311 19972 ft 275 kts 324°
2026-05-05 21:09 46.52790 4.50837 19972 ft 275 kts 323°
2026-05-05 21:09 46.54406 4.49343 19972 ft 275 kts 323°
2026-05-05 21:10 46.56008 4.47858 19972 ft 275 kts 323°
2026-05-05 21:10 46.57637 4.46388 19972 ft 275 kts 324°
2026-05-05 21:10 46.59284 4.44951 19972 ft 276 kts 325°
2026-05-05 21:10 46.60902 4.43555 19972 ft 276 kts 325°
2026-05-05 21:11 46.62576 4.42116 19972 ft 276 kts 325°
2026-05-05 21:11 46.64228 4.40697 19972 ft 276 kts 325°
2026-05-05 21:11 46.65869 4.39269 19972 ft 275 kts 324°
2026-05-05 21:11 46.67487 4.37801 19972 ft 275 kts 323°
2026-05-05 21:12 46.69116 4.36296 19972 ft 275 kts 323°
2026-05-05 21:12 46.70734 4.34792 19972 ft 275 kts 323°
2026-05-05 21:12 46.72378 4.33324 19968 ft 277 kts 328°
2026-05-05 21:12 46.74127 4.32126 19974 ft 278 kts 330°
2026-05-05 21:13 46.75868 4.30894 19973 ft 278 kts 329°
2026-05-05 21:13 46.77591 4.29652 19973 ft 278 kts 329°
2026-05-05 21:13 46.78728 4.28828 19972 ft 278 kts 329°
2026-05-05 21:13 46.80487 4.27551 19972 ft 278 kts 329°
2026-05-05 21:14 46.82200 4.26305 19972 ft 278 kts 329°
2026-05-05 21:14 46.84497 4.24632 19972 ft 278 kts 329°
2026-05-05 21:14 46.85657 4.23787 19972 ft 278 kts 329°
2026-05-05 21:14 46.87397 4.22519 19972 ft 278 kts 329°
2026-05-05 21:15 46.89117 4.21266 19972 ft 278 kts 329°
2026-05-05 21:15 46.90841 4.20009 19972 ft 278 kts 329°
2026-05-05 21:15 46.92564 4.18720 19972 ft 277 kts 327°
2026-05-05 21:15 46.94219 4.17295 19973 ft 276 kts 324°
2026-05-05 21:16 46.95864 4.15830 19973 ft 276 kts 324°
2026-05-05 21:16 46.97505 4.14353 19972 ft 276 kts 324°
2026-05-05 21:16 46.99119 4.12868 19972 ft 275 kts 323°
2026-05-05 21:16 47.00728 4.11366 19972 ft 275 kts 323°
2026-05-05 21:17 47.02357 4.09837 19972 ft 275 kts 323°
2026-05-05 21:17 47.03966 4.08324 19972 ft 275 kts 323°
2026-05-05 21:17 47.05578 4.06806 19972 ft 275 kts 323°
2026-05-05 21:17 47.07176 4.05301 19972 ft 275 kts 323°
2026-05-05 21:18 47.08797 4.03772 19972 ft 275 kts 323°
2026-05-05 21:18 47.10399 4.02261 19972 ft 275 kts 323°
2026-05-05 21:18 47.12028 4.00723 19972 ft 275 kts 323°
2026-05-05 21:18 47.13623 3.99217 19972 ft 275 kts 323°
2026-05-05 21:19 47.15240 3.97690 19972 ft 275 kts 323°
2026-05-05 21:19 47.16861 3.96157 19972 ft 275 kts 323°
2026-05-05 21:19 47.18473 3.94633 19972 ft 275 kts 323°
2026-05-05 21:19 47.20074 3.93118 19972 ft 275 kts 323°
2026-05-05 21:20 47.21697 3.91581 19972 ft 275 kts 323°
2026-05-05 21:20 47.23313 3.90075 19972 ft 276 kts 324°
2026-05-05 21:20 47.24956 3.88605 19972 ft 276 kts 324°
2026-05-05 21:20 47.26605 3.87150 19972 ft 276 kts 325°
2026-05-05 21:21 47.28254 3.85702 19972 ft 277 kts 325°
2026-05-05 21:21 47.29908 3.84251 19972 ft 277 kts 325°
2026-05-05 21:21 47.31115 3.83193 19972 ft 277 kts 325°
2026-05-05 21:22 47.32677 3.81810 19974 ft 276 kts 325°
2026-05-05 21:23 47.34307 3.80347 19973 ft 275 kts 325°
2026-05-05 21:23 47.35939 3.78876 19973 ft 274 kts 325°
2026-05-05 21:23 47.37559 3.77415 19972 ft 274 kts 325°
2026-05-05 21:23 47.39206 3.75930 19972 ft 274 kts 325°
2026-05-05 21:24 47.40808 3.74485 19972 ft 273 kts 325°
2026-05-05 21:24 47.42425 3.73021 19971 ft 273 kts 325°
2026-05-05 21:24 47.44045 3.71555 19974 ft 273 kts 325°
2026-05-05 21:24 47.45658 3.70097 19972 ft 272 kts 325°
2026-05-05 21:25 47.47295 3.68621 19973 ft 272 kts 325°
2026-05-05 21:25 47.48889 3.67179 19973 ft 272 kts 325°
2026-05-05 21:25 47.50517 3.65708 19973 ft 272 kts 325°
2026-05-05 21:25 47.52135 3.64244 19972 ft 272 kts 325°
2026-05-05 21:26 47.53734 3.62797 19972 ft 272 kts 325°
2026-05-05 21:26 47.55350 3.61333 19972 ft 272 kts 325°
2026-05-05 21:26 47.56957 3.59876 19972 ft 272 kts 325°
2026-05-05 21:26 47.58584 3.58400 19971 ft 272 kts 325°
2026-05-05 21:27 47.60186 3.56947 19974 ft 272 kts 325°
2026-05-05 21:27 47.61804 3.55479 19972 ft 272 kts 325°
2026-05-05 21:27 47.63424 3.54006 19973 ft 272 kts 325°
2026-05-05 21:27 47.65028 3.52549 19849 ft 276 kts 325°
2026-05-05 21:28 47.66696 3.51028 19657 ft 281 kts 325°
2026-05-05 21:28 47.68359 3.49506 19461 ft 286 kts 325°
2026-05-05 21:28 47.70071 3.47936 19263 ft 290 kts 325°
2026-05-05 21:28 47.71788 3.46361 19063 ft 292 kts 325°
2026-05-05 21:29 47.73529 3.44761 18864 ft 294 kts 325°
2026-05-05 21:29 47.75292 3.43139 18662 ft 296 kts 325°
2026-05-05 21:29 47.77041 3.41528 18462 ft 297 kts 325°
2026-05-05 21:29 47.78790 3.39915 18265 ft 297 kts 325°
2026-05-05 21:30 47.80536 3.38304 18069 ft 298 kts 325°
2026-05-05 21:30 47.82304 3.36676 17867 ft 298 kts 325°
2026-05-05 21:30 47.84070 3.35072 17665 ft 297 kts 325°
2026-05-05 21:30 47.85844 3.33459 17463 ft 296 kts 325°
2026-05-05 21:31 47.87595 3.31866 17261 ft 295 kts 325°
2026-05-05 21:31 47.89358 3.30262 17060 ft 294 kts 326°
2026-05-05 21:31 47.91073 3.28704 16863 ft 291 kts 325°
2026-05-05 21:31 47.92793 3.27124 16661 ft 289 kts 325°
2026-05-05 21:32 47.94497 3.25554 16464 ft 287 kts 325°
2026-05-05 21:32 47.95737 3.24407 16314 ft 287 kts 325°
2026-05-05 21:33 47.96013 3.24152 16283 ft 286 kts 325°
2026-05-05 21:33 47.97708 3.22588 16083 ft 285 kts 325°
2026-05-05 21:33 47.99399 3.21023 15882 ft 285 kts 325°
2026-05-05 21:33 48.01082 3.19467 15680 ft 285 kts 325°
2026-05-05 21:34 48.02763 3.17923 15479 ft 284 kts 325°
2026-05-05 21:34 48.04452 3.16364 15281 ft 284 kts 325°
2026-05-05 21:34 48.06116 3.14822 15084 ft 283 kts 325°
2026-05-05 21:34 48.07786 3.13274 14885 ft 283 kts 325°
2026-05-05 21:35 48.09478 3.11705 14683 ft 282 kts 325°
2026-05-05 21:35 48.11130 3.10170 14484 ft 283 kts 325°
2026-05-05 21:35 48.12811 3.08607 14283 ft 282 kts 325°
2026-05-05 21:35 48.14480 3.07053 14081 ft 282 kts 325°
2026-05-05 21:36 48.16132 3.05514 13886 ft 281 kts 325°
2026-05-05 21:36 48.17808 3.03950 13683 ft 281 kts 325°
2026-05-05 21:36 48.19469 3.02404 13483 ft 281 kts 325°
2026-05-05 21:36 48.21107 3.00877 13286 ft 280 kts 325°
2026-05-05 21:37 48.22774 2.99323 13079 ft 278 kts 325°
2026-05-05 21:37 48.24401 2.97807 12878 ft 276 kts 325°
2026-05-05 21:37 48.26023 2.96298 12679 ft 274 kts 325°
2026-05-05 21:37 48.27385 2.95029 12512 ft 273 kts 325°
2026-05-05 21:39 48.28369 2.94108 12381 ft 276 kts 325°
2026-05-05 21:39 48.29997 2.92573 12181 ft 279 kts 325°
2026-05-05 21:39 48.30031 2.92540 12177 ft 279 kts 325°
2026-05-05 21:39 48.31172 2.91470 12042 ft 280 kts 325°
2026-05-05 21:40 48.32828 2.89936 11842 ft 281 kts 326°
2026-05-05 21:40 48.34510 2.88387 11638 ft 282 kts 326°
2026-05-05 21:40 48.36178 2.86852 11443 ft 283 kts 326°
2026-05-05 21:40 48.37860 2.85303 11246 ft 283 kts 326°
2026-05-05 21:41 48.39525 2.83767 11047 ft 280 kts 326°
2026-05-05 21:41 48.41175 2.82248 10845 ft 276 kts 326°
2026-05-05 21:41 48.42815 2.80739 10645 ft 271 kts 326°
2026-05-05 21:41 48.44398 2.79284 10442 ft 268 kts 326°
2026-05-05 21:42 48.45980 2.77828 10239 ft 265 kts 326°
2026-05-05 21:42 48.47542 2.76380 10103 ft 261 kts 325°
2026-05-05 21:42 48.49076 2.74929 10028 ft 256 kts 325°
2026-05-05 21:42 48.50560 2.73517 10042 ft 250 kts 324°
2026-05-05 21:43 48.52035 2.72115 9813 ft 255 kts 324°
2026-05-05 21:43 48.53493 2.70709 9697 ft 241 kts 324°
2026-05-05 21:43 48.54898 2.69370 9548 ft 237 kts 324°
2026-05-05 21:43 48.56281 2.68056 9373 ft 237 kts 325°
2026-05-05 21:44 48.57692 2.66714 9204 ft 240 kts 324°
2026-05-05 21:44 48.59118 2.65353 9029 ft 242 kts 324°
2026-05-05 21:44 48.60542 2.63994 8858 ft 244 kts 325°
2026-05-05 21:44 48.61984 2.62644 8690 ft 245 kts 325°
2026-05-05 21:45 48.63440 2.61289 8515 ft 246 kts 326°
2026-05-05 21:45 48.64893 2.59939 8338 ft 246 kts 326°
2026-05-05 21:45 48.66352 2.58584 8159 ft 247 kts 326°
2026-05-05 21:45 48.67811 2.57229 7988 ft 246 kts 326°
2026-05-05 21:46 48.69285 2.55860 7815 ft 246 kts 326°
2026-05-05 21:46 48.70732 2.54513 7640 ft 246 kts 326°
2026-05-05 21:46 48.72193 2.53149 7470 ft 246 kts 326°
2026-05-05 21:46 48.73649 2.51791 7279 ft 247 kts 326°
2026-05-05 21:47 48.75123 2.50413 7076 ft 247 kts 326°
2026-05-05 21:47 48.76576 2.49052 6881 ft 247 kts 326°
2026-05-05 21:47 48.78060 2.47660 6679 ft 247 kts 325°
2026-05-05 21:47 48.79507 2.46300 6479 ft 247 kts 325°
2026-05-05 21:48 48.80970 2.44925 6281 ft 242 kts 327°
2026-05-05 21:48 48.82346 2.43532 6083 ft 237 kts 327°
2026-05-05 21:48 48.83682 2.42073 5878 ft 235 kts 326°
2026-05-05 21:48 48.84995 2.40612 5679 ft 232 kts 326°
2026-05-05 21:49 48.86265 2.39214 5476 ft 222 kts 326°
2026-05-05 21:49 48.87498 2.37865 5271 ft 214 kts 327°
2026-05-05 21:49 48.88700 2.36579 5068 ft 209 kts 327°
2026-05-05 21:49 48.89508 2.35723 4925 ft 206 kts 328°
2026-05-05 21:50 48.90668 2.34524 4747 ft 201 kts 328°
2026-05-05 21:50 48.91819 2.33367 4590 ft 196 kts 329°
2026-05-05 21:50 48.93331 2.31908 4388 ft 192 kts 330°
2026-05-05 21:50 48.94089 2.31207 4292 ft 190 kts 331°
2026-05-05 21:51 48.95227 2.30203 4140 ft 188 kts 333°
2026-05-05 21:51 48.96372 2.29262 4010 ft 186 kts 334°
2026-05-05 21:51 48.97543 2.28441 3871 ft 184 kts 342°
2026-05-05 21:51 48.98804 2.28524 3663 ft 184 kts 18°
2026-05-05 21:52 49.00106 2.31714 3240 ft 188 kts 77°
2026-05-05 21:52 49.00295 2.33679 2984 ft 190 kts 79°
2026-05-05 21:52 49.00450 2.35677 2776 ft 189 kts 80°
2026-05-05 21:53 49.00596 2.37667 2470 ft 187 kts 81°
2026-05-05 21:53 49.00805 2.39571 2169 ft 178 kts 75°
2026-05-05 21:53 49.01112 2.41292 1912 ft 156 kts 71°
2026-05-05 21:53 49.01394 2.42796 1627 ft 137 kts 71°
2026-05-05 21:54 49.01638 2.44116 1357 ft 126 kts 71°
2026-05-05 21:54 49.01894 2.45433 1279 ft 126 kts 67°
2026-05-05 21:54 49.02125 2.46681 1213 ft 124 kts 74°
2026-05-05 21:54 49.02176 2.48021 1043 ft 127 kts 81°
2026-05-05 21:55 49.02260 2.49353 899 ft 125 kts 78°
2026-05-05 21:55 49.02339 2.50608 734 ft 111 kts 79°
2026-05-05 21:55 49.02413 2.51729 543 ft 106 kts 77°
2026-05-05 21:55 49.02483 2.52838 421 ft 103 kts 78°
2026-05-05 21:56 49.02543 2.53762 399 ft 73 kts 85°
2026-05-05 21:56 49.02567 2.54410 399 ft 49 kts 101°
2026-05-05 21:56 49.02494 2.54830 399 ft 34 kts 104°
2026-05-05 21:56 49.02450 2.55059 399 ft 16 kts 105°
2026-05-05 21:57 49.02447 2.55181 399 ft 7 kts 93°
2026-05-05 21:57 49.02449 2.55234 399 ft 6 kts 82°
2026-05-05 21:57 49.02450 2.55304 399 ft 8 kts 92°
2026-05-05 21:57 49.02451 2.55396 399 ft 9 kts 85°
2026-05-05 21:58 49.02457 2.55495 399 ft 10 kts 86°
2026-05-05 21:58 49.02432 2.55593 398 ft 11 kts 147°
2026-05-05 21:58 49.02364 2.55612 399 ft 10 kts 178°
2026-05-05 21:58 49.02299 2.55618 399 ft 9 kts 174°
2026-05-05 21:59 49.02239 2.55627 399 ft 8 kts 174°
2026-05-05 21:59 49.02184 2.55635 399 ft 8 kts 174°
2026-05-05 21:59 49.02132 2.55642 399 ft 8 kts 180°
2026-05-05 21:59 49.02084 2.55602 399 ft 9 kts 230°
2026-05-05 22:00 49.02059 2.55483 399 ft 15 kts 268°
2026-05-05 22:00 49.02052 2.55296 398 ft 20 kts 266°
2026-05-05 22:00 49.02032 2.55098 398 ft 16 kts 230°
2026-05-05 22:00 49.01918 2.55099 399 ft 20 kts 170°
2026-05-05 22:01 49.01795 2.55129 399 ft 5 kts 178°
2026-05-05 22:01 49.01772 2.55104 399 ft 3 kts 253°
2026-05-05 22:01 49.01769 2.55068 399 ft 4 kts 271°
2026-05-05 22:01 49.01768 2.55011 399 ft 7 kts 265°
2026-05-05 22:02 49.01766 2.54963 399 ft 0 kts 265°